Flag for Pakistan Weather past 2 weeks in Peshawar, Pakistan

Now
41 °F

Fog.


Feels Like: 41 °F
Forecast: 49 / 70 °F
Wind: No wind

Location: Peshawar Airport

Current Time: Dec 21, 2014 at 4:48:38 AM

Latest Report: Dec 21, 2014 at 4:00 AM


Visibility: 2 mi

Pressure: 29.98 "Hg

Humidity: 87%

Dew point: 37 °F

Location of PeshawarLocation

Historic Weather in Peshawar — Graph

°F

Peshawar temperature yesterday

Maximum temperature yesterday: 66 °F (at 2:00 PM)
Minimum temperature yesterday: 39 °F (at 5:00 AM)
Average temperature yesterday: 50 °F

Past Weeks' High & Low Weather Summary

 TemperatureHumidityPressure
High79 °F (Dec 6, 3:00 PM)100% (Dec 8, 12:00 PM)30.27 "Hg (Dec 8, 12:00 PM)
Low39 °F (Dec 10, 5:00 AM)23% (Dec 11, 1:00 PM)29.80 "Hg (Dec 6, 5:00 AM)
Average52 °F62%30.09 "Hg
* Reported Dec 6 3:00 AM — Dec 21 3:00 AM, Peshawar, Weather by CustomWeather, © 2014

Note: Actual official high and low records may vary slightly from our data, if they occured in-between our weather recording intervals... More about our weather records

Advertising

Peshawar weather history for previous 24 hours

 ConditionsComfort  
Time TempWeatherWind HumidityBarometerVisibility
3:00 AM
Dec 21
41 °FFog.No wind87%30.01 "Hg2 mi
2:00 AM41 °FFog.No wind87%30.01 "Hg2 mi
1:00 AM43 °FHaze.No wind87%30.01 "Hg1 mi
12:00 AM43 °FPassing clouds.No wind87%30.01 "Hg1 mi
11:00 PM
Dec 20
45 °FPassing clouds.No wind87%30.04 "Hg1 mi
10:00 PM46 °FPassing clouds.No wind82%30.01 "Hg1 mi
9:00 PM48 °FPassing clouds.No wind71%30.01 "Hg1 mi
8:00 PM50 °FPassing clouds.No wind67%30.01 "Hg1 mi
7:00 PM54 °FPassing clouds.No wind67%30.01 "Hg1 mi
6:00 PM55 °FPassing clouds.No wind63%30.01 "Hg1 mi
5:00 PM57 °FScattered clouds.No wind59%30.01 "Hg1 mi
4:00 PM66 °FScattered clouds.No wind37%30.04 "Hg1 mi
3:00 PM66 °FScattered clouds.No wind40%30.04 "Hg1 mi
2:00 PM66 °FPartly sunny.No wind46%30.07 "Hg1 mi
1:00 PM61 °FPartly sunny.No wind55%30.07 "Hg1 mi
12:00 PM57 °FPartly sunny.No wind59%30.12 "Hg1 mi
8:00 AM39 °FFog.No wind81%30.18 "Hg1 mi
7:00 AM39 °FFog.No wind81%30.18 "Hg1 mi
6:00 AM39 °FFog.No wind87%30.21 "Hg2 mi
5:00 AM39 °FFog.No wind87%30.21 "Hg2 mi
4:00 AM41 °FFog.No wind87%30.18 "Hg2 mi
Weather by CustomWeather, © 2014

See weather overviewHow to use our weather pages